Location: Wanzleben
(52.0609°N, 11.4408°E)
Time: 07:38:40
(UTC+00:00)

Cosmos 2150 Rocket - Pass Details

Date: 18 September 2020
Orbit: 748 x 808 km, 74.0° (Epoch: 21 October)

Event Time Altitude Azimuth Distance (km) Brightness Sun altitude
Rises 18:47:05 0° 181° (S) 3,265 7.1 -13.7°
Reaches altitude 10° 18:49:32 10° 174° (S) 2,350 6.3 -14.1°
Maximum altitude 18:54:33 42° 105° (ESE) 1,127 4.4 -14.8°
Drops below altitude 10° 18:59:40 10° 36° (NE) 2,395 6.4 -15.5°
Sets 19:02:11 0° 30° (NNE) 3,335 7.3 -15.9°
